Time,TemperatureF,DewpointF,PressureIn,WindDirection,WindDirectionDegrees,WindSpeedMPH,WindSpeedGustMPH,Humidity,HourlyPrecipIn,Conditions,Clouds,dailyrainin,SoftwareType,DateUTC
2013-02-11 00:00:00,14.0,10.6,30.31,NNW,338,0.0,0.0,86,0.00,CLR,,0.21,WeatherDisplay:10.37,2013-02-11 05:00:00,
2013-02-11 00:05:00,13.8,10.7,30.30,NNW,338,0.0,0.0,87,0.00,RA,,0.00,WeatherDisplay:10.37,2013-02-11 05:05:00,
2013-02-11 00:10:00,13.8,10.4,30.31,NNW,338,0.0,0.0,86,0.00,CLR,,0.00,WeatherDisplay:10.37,2013-02-11 05:10:00,
2013-02-11 00:15:00,13.6,10.2,30.31,NNW,338,0.0,0.0,86,0.00,CLR,,0.00,WeatherDisplay:10.37,2013-02-11 05:15:00,
2013-02-11 00:20:00,13.6,10.2,30.31,NNW,338,0.0,0.0,86,0.00,CLR,,0.00,WeatherDisplay:10.37,2013-02-11 05:20:00,
2013-02-11 00:25:00,13.6,10.2,30.31,NNW,338,0.0,0.0,86,0.00,CLR,,0.00,WeatherDisplay:10.37,2013-02-11 05:25:00,
2013-02-11 00:30:00,13.5,10.1,30.31,NNW,338,0.0,0.0,86,0.00,CLR,,0.00,WeatherDisplay:10.37,2013-02-11 05:30:00,
2013-02-11 00:35:00,13.3,9.9,30.31,NNW,338,0.0,0.0,86,0.00,CLR,,0.00,WeatherDisplay:10.37,2013-02-11 05:35:00,
2013-02-11 00:40:00,13.3,9.9,30.31,NNW,338,0.0,0.0,86,0.00,CLR,,0.00,WeatherDisplay:10.37,2013-02-11 05:40:00,
2013-02-11 00:45:00,13.3,9.9,30.31,NNW,338,0.0,0.0,86,0.00,CLR,,0.00,WeatherDisplay:10.37,2013-02-11 05:45:00,
2013-02-11 00:50:00,13.3,9.9,30.31,NNW,338,0.0,0.0,86,0.00,CLR,,0.00,WeatherDisplay:10.37,2013-02-11 05:50:00,
2013-02-11 00:55:00,13.3,9.9,30.30,NNW,338,0.0,0.0,86,0.00,CLR,,0.00,WeatherDisplay:10.37,2013-02-11 05:55:00,
2013-02-11 01:00:00,13.3,9.9,30.30,NNW,338,0.0,0.0,86,0.00,CLR,,0.00,WeatherDisplay:10.37,2013-02-11 06:00:00,
2013-02-11 01:05:00,13.3,9.9,30.30,NNW,338,0.0,0.0,86,0.00,CLR,,0.00,WeatherDisplay:10.37,2013-02-11 06:05:00,
2013-02-11 01:10:00,13.5,10.1,30.30,NNW,338,0.0,0.0,86,0.00,CLR,,0.00,WeatherDisplay:10.37,2013-02-11 06:10:00,
2013-02-11 01:15:00,13.5,10.1,30.29,NNW,338,0.0,0.0,86,0.00,CLR,,0.00,WeatherDisplay:10.37,2013-02-11 06:15:00,
2013-02-11 01:20:00,13.6,10.2,30.29,NNW,338,0.0,0.0,86,0.00,CLR,,0.00,WeatherDisplay:10.37,2013-02-11 06:20:00,
2013-02-11 01:25:00,13.6,10.5,30.29,NNW,338,0.0,0.0,87,0.00,CLR,,0.00,WeatherDisplay:10.37,2013-02-11 06:25:00,
2013-02-11 01:30:00,13.8,10.4,30.29,NNW,338,0.0,0.0,86,0.00,CLR,,0.00,WeatherDisplay:10.37,2013-02-11 06:30:00,
2013-02-11 01:35:00,14.0,10.8,30.29,NNW,338,0.0,0.0,87,0.00,CLR,,0.00,WeatherDisplay:10.37,2013-02-11 06:35:00,
2013-02-11 01:40:00,14.0,10.8,30.29,NNW,338,0.0,0.0,87,0.00,CLR,,0.00,WeatherDisplay:10.37,2013-02-11 06:40:00,
2013-02-11 01:45:00,14.0,10.6,30.29,NNW,338,0.0,0.0,86,0.00,CLR,,0.00,WeatherDisplay:10.37,2013-02-11 06:45:00,
2013-02-11 01:50:00,14.2,11.0,30.29,NNW,338,0.0,0.0,87,0.00,CLR,,0.00,WeatherDisplay:10.37,2013-02-11 06:50:00,
2013-02-11 01:55:00,14.2,11.0,30.29,NNW,338,0.0,0.0,87,0.00,CLR,,0.00,WeatherDisplay:10.37,2013-02-11 06:55:00,
2013-02-11 02:00:00,14.4,11.2,30.29,NNW,338,0.0,0.0,87,0.00,CLR,,0.00,WeatherDisplay:10.37,2013-02-11 07:00:00,
2013-02-11 02:05:00,14.4,11.2,30.28,NNW,338,0.0,0.0,87,0.00,CLR,,0.00,WeatherDisplay:10.37,2013-02-11 07:05:00,
2013-02-11 02:10:00,14.4,11.2,30.28,NNW,338,0.0,0.0,87,0.00,CLR,,0.00,WeatherDisplay:10.37,2013-02-11 07:10:00,
2013-02-11 02:15:00,14.5,11.4,30.27,NNW,338,0.0,0.0,87,0.00,CLR,,0.00,WeatherDisplay:10.37,2013-02-11 07:15:00,
2013-02-11 02:20:00,14.7,11.6,30.27,NNW,338,0.0,0.0,87,0.00,CLR,,0.00,WeatherDisplay:10.37,2013-02-11 07:20:00,
2013-02-11 02:25:00,14.7,11.6,30.26,North,0,0.0,0.0,87,0.00,CLR,,0.00,WeatherDisplay:10.37,2013-02-11 07:25:00,
2013-02-11 02:30:00,14.7,11.6,30.26,North,0,0.0,0.0,87,0.00,CLR,,0.00,WeatherDisplay:10.37,2013-02-11 07:30:00,
2013-02-11 02:35:00,14.7,11.6,30.26,North,0,0.0,0.0,87,0.00,CLR,,0.00,WeatherDisplay:10.37,2013-02-11 07:35:00,
2013-02-11 02:40:00,14.9,11.7,30.26,North,0,0.0,0.0,87,0.00,CLR,,0.00,WeatherDisplay:10.37,2013-02-11 07:40:00,
2013-02-11 02:45:00,15.1,11.9,30.25,North,0,0.0,0.0,87,0.00,CLR,,0.00,WeatherDisplay:10.37,2013-02-11 07:45:00,
2013-02-11 02:50:00,15.1,11.9,30.25,North,0,0.0,0.0,87,0.00,CLR,,0.00,WeatherDisplay:10.37,2013-02-11 07:50:00,
2013-02-11 02:55:00,15.1,11.9,30.25,North,0,0.0,0.0,87,0.00,CLR,,0.00,WeatherDisplay:10.37,2013-02-11 07:55:00,
2013-02-11 03:00:00,15.3,12.1,30.25,North,0,0.0,0.0,87,0.00,CLR,,0.00,WeatherDisplay:10.37,2013-02-11 08:00:00,
2013-02-11 03:05:00,15.4,12.3,30.24,North,0,0.0,0.0,87,0.00,CLR,,0.00,WeatherDisplay:10.37,2013-02-11 08:05:00,
2013-02-11 03:10:00,15.4,12.3,30.24,North,0,0.0,0.0,87,0.00,CLR,,0.00,WeatherDisplay:10.37,2013-02-11 08:10:00,
2013-02-11 03:15:00,15.6,12.4,30.24,North,0,0.0,0.0,87,0.00,CLR,,0.00,WeatherDisplay:10.37,2013-02-11 08:15:00,
2013-02-11 03:20:00,15.8,12.6,30.25,North,0,0.0,0.0,87,0.00,CLR,,0.00,WeatherDisplay:10.37,2013-02-11 08:20:00,
2013-02-11 03:25:00,16.0,12.8,30.25,North,0,0.0,0.0,87,0.00,CLR,,0.00,WeatherDisplay:10.37,2013-02-11 08:25:00,
2013-02-11 03:30:00,16.2,13.0,30.26,North,0,0.0,0.0,87,0.00,CLR,,0.00,WeatherDisplay:10.37,2013-02-11 08:30:00,
2013-02-11 03:35:00,16.2,13.0,30.26,North,0,0.0,0.0,87,0.00,CLR,,0.00,WeatherDisplay:10.37,2013-02-11 08:35:00,
2013-02-11 03:40:00,16.5,13.3,30.25,North,0,0.0,0.0,87,0.00,CLR,,0.00,WeatherDisplay:10.37,2013-02-11 08:40:00,
2013-02-11 03:45:00,16.5,13.3,30.24,North,0,0.0,0.0,87,0.00,CLR,,0.00,WeatherDisplay:10.37,2013-02-11 08:45:00,
2013-02-11 03:50:00,16.7,13.5,30.24,North,0,0.0,0.0,87,0.00,CLR,,0.00,WeatherDisplay:10.37,2013-02-11 08:50:00,
2013-02-11 03:55:00,16.9,13.7,30.24,North,0,0.0,0.0,87,0.00,CLR,,0.00,WeatherDisplay:10.37,2013-02-11 08:55:00,
2013-02-11 04:00:00,17.1,13.9,30.24,North,0,0.0,0.0,87,0.00,CLR,,0.00,WeatherDisplay:10.37,2013-02-11 09:00:00,
2013-02-11 04:05:00,17.4,14.2,30.23,North,0,0.0,0.0,87,0.00,CLR,,0.00,WeatherDisplay:10.37,2013-02-11 09:05:00,
2013-02-11 04:10:00,17.6,14.4,30.24,North,0,0.0,0.0,87,0.00,CLR,,0.00,WeatherDisplay:10.37,2013-02-11 09:10:00,
2013-02-11 04:15:00,17.8,14.6,30.24,North,0,0.0,0.0,87,0.00,CLR,,0.00,WeatherDisplay:10.37,2013-02-11 09:15:00,
2013-02-11 04:20:00,18.0,14.7,30.24,North,0,0.0,0.0,87,0.00,CLR,,0.00,WeatherDisplay:10.37,2013-02-11 09:20:00,
2013-02-11 04:25:00,18.3,15.4,30.23,North,0,0.0,0.0,88,0.00,CLR,,0.00,WeatherDisplay:10.37,2013-02-11 09:25:00,
2013-02-11 04:30:00,18.3,15.4,30.23,North,0,0.0,0.0,88,0.00,CLR,,0.00,WeatherDisplay:10.37,2013-02-11 09:30:00,
2013-02-11 04:35:00,18.5,15.5,30.22,North,0,0.0,0.0,88,0.00,CLR,,0.00,WeatherDisplay:10.37,2013-02-11 09:35:00,
2013-02-11 04:40:00,18.7,15.7,30.22,North,0,0.0,0.0,88,0.00,CLR,,0.00,WeatherDisplay:10.37,2013-02-11 09:40:00,
2013-02-11 04:45:00,18.9,15.9,30.22,North,0,0.0,0.0,88,0.00,CLR,,0.00,WeatherDisplay:10.37,2013-02-11 09:45:00,
2013-02-11 04:50:00,19.0,16.1,30.21,NNW,338,0.0,0.0,88,0.00,CLR,,0.00,WeatherDisplay:10.37,2013-02-11 09:50:00,
2013-02-11 04:55:00,19.2,16.2,30.21,NNW,338,0.0,0.0,88,0.00,CLR,,0.00,WeatherDisplay:10.37,2013-02-11 09:55:00,
2013-02-11 05:00:00,19.4,16.4,30.21,NNW,338,0.0,0.0,88,0.00,CLR,,0.00,WeatherDisplay:10.37,2013-02-11 10:00:00,
2013-02-11 05:05:00,19.6,16.6,30.21,NNW,338,0.0,0.0,88,0.00,CLR,,0.00,WeatherDisplay:10.37,2013-02-11 10:05:00,
2013-02-11 05:10:00,19.8,16.8,30.21,NNW,338,0.0,0.0,88,0.00,CLR,,0.00,WeatherDisplay:10.37,2013-02-11 10:10:00,
2013-02-11 05:15:00,19.8,16.8,30.21,West,270,0.0,0.0,88,0.00,CLR,,0.00,WeatherDisplay:10.37,2013-02-11 10:15:00,
2013-02-11 05:20:00,20.1,17.1,30.21,SW,225,0.0,0.0,88,0.00,CLR,,0.00,WeatherDisplay:10.37,2013-02-11 10:20:00,
2013-02-11 05:25:00,20.3,17.3,30.21,WSW,248,0.0,0.0,88,0.00,CLR,,0.00,WeatherDisplay:10.37,2013-02-11 10:25:00,
2013-02-11 05:30:00,20.5,17.8,30.21,WSW,248,0.0,0.0,89,0.00,CLR,,0.00,WeatherDisplay:10.37,2013-02-11 10:30:00,
2013-02-11 05:35:00,20.7,17.9,30.21,WSW,248,0.0,0.0,89,0.00,CLR,,0.00,WeatherDisplay:10.37,2013-02-11 10:35:00,
2013-02-11 05:40:00,20.8,18.1,30.21,WSW,248,0.0,0.0,89,0.00,CLR,,0.00,WeatherDisplay:10.37,2013-02-11 10:40:00,
2013-02-11 05:45:00,21.2,18.5,30.21,SW,225,0.0,0.0,89,0.00,CLR,,0.00,WeatherDisplay:10.37,2013-02-11 10:45:00,
2013-02-11 05:50:00,21.2,18.5,30.21,SSW,202,0.0,0.0,89,0.00,CLR,,0.00,WeatherDisplay:10.37,2013-02-11 10:50:00,
2013-02-11 05:55:00,21.6,18.8,30.21,SW,225,0.0,0.0,89,0.00,CLR,,0.00,WeatherDisplay:10.37,2013-02-11 10:55:00,
2013-02-11 06:00:00,21.7,19.0,30.22,SSW,202,0.0,0.0,89,0.00,CLR,,0.00,WeatherDisplay:10.37,2013-02-11 11:00:00,
2013-02-11 06:05:00,21.9,19.2,30.21,SSW,202,0.0,0.0,89,0.00,CLR,,0.00,WeatherDisplay:10.37,2013-02-11 11:05:00,
2013-02-11 06:10:00,21.9,19.2,30.21,SSW,202,0.0,0.0,89,0.00,CLR,,0.00,WeatherDisplay:10.37,2013-02-11 11:10:00,
2013-02-11 06:15:00,22.1,19.4,30.21,SSW,202,0.0,0.0,89,0.00,CLR,,0.00,WeatherDisplay:10.37,2013-02-11 11:15:00,
2013-02-11 06:20:00,22.5,19.7,30.21,SW,225,0.0,0.0,89,0.00,CLR,,0.00,WeatherDisplay:10.37,2013-02-11 11:20:00,
2013-02-11 06:25:00,22.6,19.9,30.21,South,180,0.0,0.0,89,0.00,CLR,,0.00,WeatherDisplay:10.37,2013-02-11 11:25:00,
2013-02-11 06:30:00,22.8,20.1,30.21,SSW,202,0.0,0.0,89,0.00,CLR,,0.00,WeatherDisplay:10.37,2013-02-11 11:30:00,
2013-02-11 06:35:00,23.4,20.6,30.21,ESE,112,0.0,0.0,89,0.00,CLR,,0.00,WeatherDisplay:10.37,2013-02-11 11:35:00,
2013-02-11 06:40:00,23.7,21.0,30.20,SSW,202,0.0,0.0,89,0.00,CLR,,0.00,WeatherDisplay:10.37,2013-02-11 11:40:00,
2013-02-11 06:45:00,24.3,21.5,30.19,ESE,112,0.0,0.0,89,0.00,CLR,,0.00,WeatherDisplay:10.37,2013-02-11 11:45:00,
2013-02-11 06:50:00,24.8,22.0,30.19,SSE,158,0.0,0.0,89,0.00,CLR,,0.00,WeatherDisplay:10.37,2013-02-11 11:50:00,
2013-02-11 06:55:00,25.5,23.0,30.18,SW,225,0.0,0.0,90,0.00,CLR,,0.00,WeatherDisplay:10.37,2013-02-11 11:55:00,
2013-02-11 07:00:00,26.1,23.5,30.18,SSW,202,0.0,0.0,90,0.00,CLR,,0.00,WeatherDisplay:10.37,2013-02-11 12:00:00,
2013-02-11 07:05:00,26.6,24.1,30.19,SSW,202,0.2,0.2,90,0.00,CLR,,0.00,WeatherDisplay:10.37,2013-02-11 12:05:00,
2013-02-11 07:10:00,27.3,24.8,30.19,SSE,158,0.0,0.0,90,0.00,CLR,,0.00,WeatherDisplay:10.37,2013-02-11 12:10:00,
2013-02-11 07:15:00,28.2,25.7,30.18,South,180,0.0,0.0,90,0.00,CLR,,0.00,WeatherDisplay:10.37,2013-02-11 12:15:00,
2013-02-11 07:20:00,28.8,26.2,30.17,SSE,158,0.0,0.0,90,0.00,CLR,,0.00,WeatherDisplay:10.37,2013-02-11 12:20:00,
2013-02-11 07:25:00,29.1,26.6,30.17,South,180,2.4,2.4,90,0.00,CLR,,0.00,WeatherDisplay:10.37,2013-02-11 12:25:00,
2013-02-11 07:30:00,29.5,26.9,30.17,SSW,202,0.7,2.3,90,0.00,CLR,,0.00,WeatherDisplay:10.37,2013-02-11 12:30:00,
2013-02-11 07:35:00,29.8,27.3,30.18,South,180,3.3,3.5,90,0.00,CLR,,0.00,WeatherDisplay:10.37,2013-02-11 12:35:00,
2013-02-11 07:40:00,30.2,27.6,30.18,South,180,1.6,4.6,90,0.00,CLR,,0.00,WeatherDisplay:10.37,2013-02-11 12:40:00,
2013-02-11 07:45:00,30.6,28.0,30.18,SSE,158,1.1,2.3,90,0.00,CLR,,0.00,WeatherDisplay:10.37,2013-02-11 12:45:00,
2013-02-11 07:50:00,30.9,28.3,30.18,SSW,202,1.8,3.5,90,0.00,CLR,,0.00,WeatherDisplay:10.37,2013-02-11 12:50:00,
2013-02-11 07:55:00,31.1,28.5,30.17,South,180,0.5,1.1,90,0.00,CLR,,0.00,WeatherDisplay:10.37,2013-02-11 12:55:00,
2013-02-11 08:00:00,31.3,28.7,30.17,South,180,0.9,3.5,90,0.00,CLR,,0.00,WeatherDisplay:10.37,2013-02-11 13:00:00,
2013-02-11 08:05:00,31.5,28.9,30.17,South,180,1.4,2.3,90,0.00,CLR,,0.00,WeatherDisplay:10.37,2013-02-11 13:05:00,
2013-02-11 08:10:00,31.6,29.0,30.16,South,180,0.9,2.3,90,0.00,CLR,,0.00,WeatherDisplay:10.37,2013-02-11 13:10:00,
2013-02-11 08:15:00,31.8,29.2,30.16,SE,135,2.9,2.9,90,0.00,CLR,,0.00,WeatherDisplay:10.37,2013-02-11 13:15:00,
2013-02-11 08:20:00,31.8,29.2,30.15,SE,135,0.7,2.3,90,0.00,CLR,,0.00,WeatherDisplay:10.37,2013-02-11 13:20:00,
2013-02-11 08:25:00,32.0,29.7,30.15,SE,135,3.3,3.3,91,0.00,CLR,,0.00,WeatherDisplay:10.37,2013-02-11 13:25:00,
2013-02-11 08:30:00,32.2,29.8,30.15,SE,135,1.1,2.3,91,0.00,CLR,,0.00,WeatherDisplay:10.37,2013-02-11 13:30:00,
2013-02-11 08:35:00,32.4,30.0,30.14,SSW,202,2.6,3.5,91,0.00,CLR,,0.00,WeatherDisplay:10.37,2013-02-11 13:35:00,
2013-02-11 08:40:00,32.4,30.0,30.14,SE,135,1.8,2.3,91,0.00,CLR,,0.00,WeatherDisplay:10.37,2013-02-11 13:40:00,
2013-02-11 08:45:00,32.4,30.0,30.14,SSE,158,1.8,2.3,91,0.00,CLR,,0.00,WeatherDisplay:10.37,2013-02-11 13:45:00,
2013-02-11 08:50:00,32.5,30.2,30.14,SSE,158,4.0,4.0,91,0.00,CLR,,0.00,WeatherDisplay:10.37,2013-02-11 13:50:00,
2013-02-11 08:55:00,32.5,30.2,30.14,SW,225,2.6,2.6,91,0.00,CLR,,0.00,WeatherDisplay:10.37,2013-02-11 13:55:00,
2013-02-11 09:00:00,32.5,30.2,30.14,SSE,158,1.1,2.3,91,0.00,CLR,,0.00,WeatherDisplay:10.37,2013-02-11 14:00:00,
2013-02-11 09:05:00,32.5,30.2,30.13,SSE,158,0.9,1.1,91,0.00,CLR,,0.00,WeatherDisplay:10.37,2013-02-11 14:05:00,
2013-02-11 09:10:00,32.7,30.4,30.14,SW,225,0.0,2.3,91,0.00,CLR,,0.00,WeatherDisplay:10.37,2013-02-11 14:10:00,
2013-02-11 09:15:00,32.7,30.4,30.13,SSE,158,4.0,4.0,91,0.00,CLR,,0.00,WeatherDisplay:10.37,2013-02-11 14:15:00,
2013-02-11 09:20:00,32.9,30.8,30.12,South,180,1.8,2.3,92,0.00,CLR,,0.00,WeatherDisplay:10.37,2013-02-11 14:20:00,
2013-02-11 09:25:00,33.1,31.0,30.12,South,180,2.4,2.4,92,0.00,CLR,,0.00,WeatherDisplay:10.37,2013-02-11 14:25:00,
2013-02-11 09:30:00,33.3,31.2,30.12,SSE,158,2.6,5.8,92,0.00,CLR,,0.00,WeatherDisplay:10.37,2013-02-11 14:30:00,
2013-02-11 09:35:00,33.4,31.4,30.11,ESE,112,2.2,4.6,92,0.00,CLR,,0.00,WeatherDisplay:10.37,2013-02-11 14:35:00,
2013-02-11 09:40:00,33.4,31.4,30.11,SE,135,1.8,6.9,92,0.00,CLR,,0.00,WeatherDisplay:10.37,2013-02-11 14:40:00,
2013-02-11 09:45:00,33.4,31.4,30.10,SSE,158,4.5,4.6,92,0.00,CLR,,0.00,WeatherDisplay:10.37,2013-02-11 14:45:00,
2013-02-11 09:50:00,33.6,31.5,30.10,SSW,202,0.5,5.8,92,0.00,CLR,,0.00,WeatherDisplay:10.37,2013-02-11 14:50:00,
2013-02-11 09:55:00,33.6,31.5,30.09,SSW,202,2.6,3.5,92,0.00,CLR,,0.00,WeatherDisplay:10.37,2013-02-11 14:55:00,
2013-02-11 10:00:00,33.8,31.7,30.08,South,180,2.9,3.5,92,0.01,RA,,0.01,WeatherDisplay:10.37,2013-02-11 15:00:00,
2013-02-11 10:05:00,34.0,31.9,30.08,South,180,3.8,3.8,92,0.01,RA,,0.01,WeatherDisplay:10.37,2013-02-11 15:05:00,
2013-02-11 10:49:00,36.1,34.0,30.03,NE,45,1.8,3.5,92,0.01,RA,,0.01,WeatherDisplay:10.37,2013-02-11 15:49:00,
2013-02-11 10:54:00,36.3,34.2,30.03,SE,135,1.8,6.9,92,0.01,RA,,0.01,WeatherDisplay:10.37,2013-02-11 15:54:00,
2013-02-11 10:59:00,36.7,34.8,30.02,SW,225,1.8,6.9,93,0.02,RA,,0.02,WeatherDisplay:10.37,2013-02-11 15:59:00,
2013-02-11 11:04:00,37.0,35.2,30.01,SSE,158,6.2,6.2,93,0.02,RA,,0.03,WeatherDisplay:10.37,2013-02-11 16:04:00,
2013-02-11 11:09:00,37.0,34.9,30.01,South,180,3.1,4.6,92,0.03,RA,,0.03,WeatherDisplay:10.37,2013-02-11 16:09:00,
2013-02-11 11:14:00,37.2,35.1,30.00,SSE,158,2.9,5.8,92,0.03,RA,,0.03,WeatherDisplay:10.37,2013-02-11 16:14:00,
2013-02-11 11:19:00,37.4,35.3,29.99,SSE,158,4.0,6.9,92,0.04,RA,,0.04,WeatherDisplay:10.37,2013-02-11 16:19:00,
2013-02-11 11:24:00,37.6,35.5,29.98,SSE,158,4.0,8.1,92,0.04,RA,,0.04,WeatherDisplay:10.37,2013-02-11 16:24:00,
2013-02-11 11:29:00,37.8,35.6,29.98,South,180,4.9,6.9,92,0.06,RA,,0.06,WeatherDisplay:10.37,2013-02-11 16:29:00,
2013-02-11 11:34:00,37.8,35.6,29.97,South,180,3.8,5.8,92,0.06,RA,,0.06,WeatherDisplay:10.37,2013-02-11 16:34:00,
2013-02-11 11:39:00,37.8,35.6,29.97,South,180,6.2,8.1,92,0.06,RA,,0.06,WeatherDisplay:10.37,2013-02-11 16:39:00,
2013-02-11 11:44:00,37.9,35.8,29.96,South,180,4.7,5.8,92,0.06,RA,,0.06,WeatherDisplay:10.37,2013-02-11 16:44:00,
2013-02-11 11:49:00,37.9,35.8,29.95,SSE,158,3.6,3.6,92,0.06,RA,,0.07,WeatherDisplay:10.37,2013-02-11 16:49:00,
2013-02-11 11:54:00,38.1,36.0,29.95,SSE,158,6.0,6.0,92,0.06,RA,,0.08,WeatherDisplay:10.37,2013-02-11 16:54:00,
2013-02-11 11:59:00,38.5,36.4,29.95,South,180,4.9,5.8,92,0.06,RA,,0.08,WeatherDisplay:10.37,2013-02-11 16:59:00,
2013-02-11 12:04:00,38.8,36.7,29.94,SE,135,6.2,6.9,92,0.06,RA,,0.08,WeatherDisplay:10.37,2013-02-11 17:04:00,
2013-02-11 12:09:00,39.2,37.3,29.94,SSE,158,7.4,7.4,93,0.06,RA,,0.09,WeatherDisplay:10.37,2013-02-11 17:09:00,
2013-02-11 12:14:00,39.2,37.3,29.93,SSW,202,4.7,8.1,93,0.07,RA,,0.10,WeatherDisplay:10.37,2013-02-11 17:14:00,
2013-02-11 12:19:00,39.6,37.7,29.92,SW,225,7.4,7.4,93,0.06,RA,,0.10,WeatherDisplay:10.37,2013-02-11 17:19:00,
2013-02-11 12:24:00,39.4,37.5,29.92,SSE,158,8.5,8.5,93,0.07,RA,,0.11,WeatherDisplay:10.37,2013-02-11 17:24:00,
2013-02-11 12:29:00,39.6,37.7,29.92,SSW,202,4.9,5.8,93,0.07,RA,,0.13,WeatherDisplay:10.37,2013-02-11 17:29:00,
2013-02-11 12:34:00,39.6,37.7,29.91,West,270,4.3,6.9,93,0.07,RA,,0.13,WeatherDisplay:10.37,2013-02-11 17:34:00,
2013-02-11 12:39:00,39.6,37.7,29.91,SSE,158,5.2,5.8,93,0.07,RA,,0.13,WeatherDisplay:10.37,2013-02-11 17:39:00,
2013-02-11 12:44:00,39.7,37.9,29.90,South,180,4.0,4.6,93,0.08,RA,,0.15,WeatherDisplay:10.37,2013-02-11 17:44:00,
2013-02-11 12:49:00,39.6,37.4,29.89,South,180,4.7,6.9,92,0.08,RA,,0.15,WeatherDisplay:10.37,2013-02-11 17:49:00,
2013-02-11 12:54:00,39.7,37.9,29.88,South,180,5.6,9.2,93,0.09,RA,,0.17,WeatherDisplay:10.37,2013-02-11 17:54:00,
2013-02-11 12:59:00,39.7,37.9,29.88,SSE,158,5.9,9.2,93,0.10,RA,,0.19,WeatherDisplay:10.37,2013-02-11 17:59:00,
2013-02-11 13:04:00,39.9,38.1,29.87,SE,135,6.2,6.2,93,0.11,RA,,0.20,WeatherDisplay:10.37,2013-02-11 18:04:00,
2013-02-11 13:09:00,39.9,37.8,29.87,SSE,158,2.9,5.8,92,0.12,RA,,0.22,WeatherDisplay:10.37,2013-02-11 18:09:00,
2013-02-11 13:14:00,39.9,37.8,29.86,South,180,4.0,6.9,92,0.12,RA,,0.24,WeatherDisplay:10.37,2013-02-11 18:14:00,
2013-02-11 13:19:00,39.9,37.8,29.85,SSE,158,2.9,5.8,92,0.15,RA,,0.25,WeatherDisplay:10.37,2013-02-11 18:19:00,
2013-02-11 13:24:00,40.1,38.0,29.85,South,180,6.0,6.0,92,0.14,RA,,0.26,WeatherDisplay:10.37,2013-02-11 18:24:00,
2013-02-11 13:29:00,40.3,38.4,29.84,SSE,158,4.9,6.9,93,0.14,RA,,0.27,WeatherDisplay:10.37,2013-02-11 18:29:00,
2013-02-11 13:34:00,40.3,38.4,29.84,SE,135,5.4,9.2,93,0.15,RA,,0.28,WeatherDisplay:10.37,2013-02-11 18:34:00,
2013-02-11 13:39:00,40.3,38.4,29.84,South,180,10.0,10.0,93,0.15,RA,,0.30,WeatherDisplay:10.37,2013-02-11 18:39:00,
2013-02-11 13:44:00,40.5,38.6,29.83,SSE,158,8.3,8.3,93,0.15,RA,,0.31,WeatherDisplay:10.37,2013-02-11 18:44:00,
2013-02-11 13:49:00,40.5,38.6,29.82,South,180,6.2,6.2,93,0.17,RA,,0.32,WeatherDisplay:10.37,2013-02-11 18:49:00,
2013-02-11 13:54:00,40.6,38.8,29.82,SSW,202,7.6,10.4,93,0.16,RA,,0.34,WeatherDisplay:10.37,2013-02-11 18:54:00,
2013-02-11 13:59:00,40.8,39.0,29.82,South,180,12.8,12.8,93,0.16,RA,,0.35,WeatherDisplay:10.37,2013-02-11 18:59:00,
2013-02-11 14:04:00,41.0,39.1,29.82,South,180,12.5,12.5,93,0.16,RA,,0.36,WeatherDisplay:10.37,2013-02-11 19:04:00,
2013-02-11 14:09:00,41.2,39.3,29.81,SSE,158,4.9,11.5,93,0.15,RA,,0.37,WeatherDisplay:10.37,2013-02-11 19:09:00,
2013-02-11 14:14:00,41.2,39.3,29.81,South,180,4.7,8.1,93,0.15,RA,,0.39,WeatherDisplay:10.37,2013-02-11 19:14:00,
2013-02-11 14:19:00,41.2,39.3,29.80,SSW,202,4.7,12.7,93,0.15,RA,,0.40,WeatherDisplay:10.37,2013-02-11 19:19:00,
2013-02-11 14:24:00,41.0,39.1,29.81,South,180,7.8,7.8,93,0.15,RA,,0.41,WeatherDisplay:10.37,2013-02-11 19:24:00,
2013-02-11 14:29:00,41.2,39.3,29.80,ESE,112,4.7,5.8,93,0.15,RA,,0.42,WeatherDisplay:10.37,2013-02-11 19:29:00,
2013-02-11 14:34:00,41.4,39.5,29.80,South,180,4.0,9.2,93,0.15,RA,,0.43,WeatherDisplay:10.37,2013-02-11 19:34:00,
2013-02-11 14:39:00,41.4,39.5,29.80,South,180,7.6,8.1,93,0.15,RA,,0.44,WeatherDisplay:10.37,2013-02-11 19:39:00,
2013-02-11 14:44:00,41.4,39.5,29.79,SSW,202,4.7,6.9,93,0.14,RA,,0.45,WeatherDisplay:10.37,2013-02-11 19:44:00,
2013-02-11 14:49:00,41.4,39.5,29.79,South,180,6.2,6.9,93,0.14,RA,,0.46,WeatherDisplay:10.37,2013-02-11 19:49:00,
2013-02-11 14:54:00,41.5,39.7,29.79,SSW,202,6.2,9.2,93,0.14,RA,,0.47,WeatherDisplay:10.37,2013-02-11 19:54:00,
2013-02-11 14:59:00,41.5,39.7,29.78,SSW,202,8.1,9.2,93,0.13,RA,,0.48,WeatherDisplay:10.37,2013-02-11 19:59:00,
2013-02-11 15:04:00,41.7,39.8,29.77,SSE,158,5.4,6.9,93,0.13,RA,,0.49,WeatherDisplay:10.37,2013-02-11 20:04:00,
2013-02-11 15:09:00,41.5,39.7,29.77,SSW,202,5.4,10.4,93,0.13,RA,,0.50,WeatherDisplay:10.37,2013-02-11 20:09:00,
2013-02-11 15:14:00,41.5,39.7,29.77,SSE,158,5.6,5.8,93,0.12,RA,,0.51,WeatherDisplay:10.37,2013-02-11 20:14:00,
2013-02-11 15:19:00,41.5,39.7,29.76,SSE,158,7.1,9.2,93,0.12,RA,,0.52,WeatherDisplay:10.37,2013-02-11 20:19:00,
2013-02-11 15:24:00,41.4,39.5,29.76,SE,135,6.7,8.1,93,0.12,RA,,0.53,WeatherDisplay:10.37,2013-02-11 20:24:00,
2013-02-11 15:29:00,41.4,39.5,29.75,SSE,158,6.2,10.4,93,0.11,RA,,0.53,WeatherDisplay:10.37,2013-02-11 20:29:00,
2013-02-11 15:34:00,41.4,39.5,29.75,SW,225,9.4,9.4,93,0.11,RA,,0.54,WeatherDisplay:10.37,2013-02-11 20:34:00,
2013-02-11 15:39:00,41.2,39.3,29.74,SSE,158,6.2,8.1,93,0.10,RA,,0.54,WeatherDisplay:10.37,2013-02-11 20:39:00,
2013-02-11 15:44:00,41.4,39.5,29.74,SE,135,3.6,6.9,93,0.10,RA,,0.55,WeatherDisplay:10.37,2013-02-11 20:44:00,
2013-02-11 15:49:00,41.4,39.5,29.73,South,180,3.3,4.6,93,0.09,RA,,0.55,WeatherDisplay:10.37,2013-02-11 20:49:00,
2013-02-11 15:54:00,41.4,39.5,29.74,SSW,202,5.6,5.6,93,0.09,RA,,0.56,WeatherDisplay:10.37,2013-02-11 20:54:00,
2013-02-11 15:59:00,41.2,39.3,29.74,SSE,158,5.4,5.8,93,0.08,RA,,0.56,WeatherDisplay:10.37,2013-02-11 20:59:00,
2013-02-11 16:04:00,41.2,39.3,29.73,SW,225,2.9,4.6,93,0.08,RA,,0.57,WeatherDisplay:10.37,2013-02-11 21:04:00,
2013-02-11 16:09:00,41.0,39.1,29.73,SSE,158,3.1,4.6,93,0.08,RA,,0.58,WeatherDisplay:10.37,2013-02-11 21:09:00,
2013-02-11 16:14:00,41.0,39.1,29.73,SSW,202,4.9,5.8,93,0.08,RA,,0.59,WeatherDisplay:10.37,2013-02-11 21:14:00,
2013-02-11 16:19:00,41.0,39.1,29.72,South,180,2.6,4.6,93,0.07,RA,,0.59,WeatherDisplay:10.37,2013-02-11 21:19:00,
2013-02-11 16:24:00,41.0,39.1,29.72,SW,225,5.4,6.9,93,0.07,RA,,0.60,WeatherDisplay:10.37,2013-02-11 21:24:00,
2013-02-11 16:29:00,40.8,39.0,29.72,SSW,202,1.8,4.6,93,0.07,RA,,0.60,WeatherDisplay:10.37,2013-02-11 21:29:00,
2013-02-11 16:34:00,40.8,39.0,29.71,South,180,2.4,5.8,93,0.06,CLR,,0.60,WeatherDisplay:10.37,2013-02-11 21:34:00,
2013-02-11 16:39:00,41.0,39.1,29.71,SSW,202,5.2,9.2,93,0.07,RA,,0.61,WeatherDisplay:10.37,2013-02-11 21:39:00,
2013-02-11 16:44:00,41.0,39.1,29.70,SSW,202,4.0,9.2,93,0.06,RA,,0.61,WeatherDisplay:10.37,2013-02-11 21:44:00,
2013-02-11 16:49:00,41.7,40.1,29.70,SSW,202,5.2,6.9,94,0.06,,,0.61,WeatherDisplay:10.37,2013-02-11 21:49:00,
2013-02-11 16:54:00,42.1,40.5,29.69,SW,225,4.7,4.7,94,0.06,RA,,0.62,WeatherDisplay:10.37,2013-02-11 21:54:00,
2013-02-11 16:59:00,41.9,40.0,29.69,SW,225,3.3,4.6,93,0.06,RA,,0.62,WeatherDisplay:10.37,2013-02-11 21:59:00,
2013-02-11 17:04:00,41.5,39.7,29.70,NW,315,1.1,1.1,93,0.05,,,0.62,WeatherDisplay:10.37,2013-02-11 22:04:00,
2013-02-11 17:09:00,41.4,39.5,29.70,SSW,202,6.9,6.9,93,0.05,RA,,0.63,WeatherDisplay:10.37,2013-02-11 22:09:00,
2013-02-11 17:14:00,41.4,39.5,29.69,WSW,248,1.1,4.6,93,0.05,RA,,0.64,WeatherDisplay:10.37,2013-02-11 22:14:00,
2013-02-11 17:19:00,41.4,39.5,29.69,SSE,158,2.4,3.5,93,0.06,RA,,0.65,WeatherDisplay:10.37,2013-02-11 22:19:00,
2013-02-11 17:24:00,41.4,39.8,29.69,SSW,202,2.0,4.6,94,0.06,RA,,0.66,WeatherDisplay:10.37,2013-02-11 22:24:00,
2013-02-11 17:29:00,41.5,39.9,29.68,SSW,202,3.1,3.1,94,0.07,RA,,0.67,WeatherDisplay:10.37,2013-02-11 22:29:00,
2013-02-11 17:34:00,41.7,40.1,29.68,South,180,4.3,4.3,94,0.07,RA,,0.67,WeatherDisplay:10.37,2013-02-11 22:34:00,
2013-02-11 17:39:00,41.7,40.1,29.68,SSE,158,4.0,4.6,94,0.07,CLR,,0.67,WeatherDisplay:10.37,2013-02-11 22:39:00,
2013-02-11 17:44:00,42.1,40.5,29.67,SSW,202,1.8,2.3,94,0.06,CLR,,0.67,WeatherDisplay:10.37,2013-02-11 22:44:00,
2013-02-11 17:49:00,42.4,40.8,29.67,South,180,4.5,5.8,94,0.06,CLR,,0.67,WeatherDisplay:10.37,2013-02-11 22:49:00,
2013-02-11 17:54:00,42.4,40.6,29.67,SSE,158,2.4,3.5,93,0.06,CLR,,0.67,WeatherDisplay:10.37,2013-02-11 22:54:00,
2013-02-11 17:59:00,42.4,40.6,29.68,South,180,3.8,5.8,93,0.05,CLR,,0.67,WeatherDisplay:10.37,2013-02-11 22:59:00,
2013-02-11 18:04:00,42.4,40.6,29.67,SW,225,2.4,5.8,93,0.05,CLR,,0.67,WeatherDisplay:10.37,2013-02-11 23:04:00,
2013-02-11 18:09:00,42.3,40.4,29.66,SE,135,2.4,5.8,93,0.04,CLR,,0.67,WeatherDisplay:10.37,2013-02-11 23:09:00,
2013-02-11 18:14:00,42.3,40.4,29.67,South,180,1.6,2.3,93,0.03,CLR,,0.67,WeatherDisplay:10.37,2013-02-11 23:14:00,
2013-02-11 18:19:00,42.1,40.2,29.65,South,180,2.9,4.6,93,0.03,RA,,0.68,WeatherDisplay:10.37,2013-02-11 23:19:00,
2013-02-11 18:24:00,42.1,40.2,29.66,SW,225,2.4,4.6,93,0.02,RA,,0.68,WeatherDisplay:10.37,2013-02-11 23:24:00,
2013-02-11 18:29:00,42.1,40.2,29.67,WSW,248,0.0,2.3,93,0.01,CLR,,0.68,WeatherDisplay:10.37,2013-02-11 23:29:00,
2013-02-11 18:34:00,41.9,40.0,29.67,SW,225,0.5,2.3,93,0.01,CLR,,0.68,WeatherDisplay:10.37,2013-02-11 23:34:00,
2013-02-11 18:39:00,41.7,39.8,29.67,SW,225,0.7,1.1,93,0.02,RA,,0.69,WeatherDisplay:10.37,2013-02-11 23:39:00,
2013-02-11 18:44:00,41.5,39.7,29.67,SSW,202,2.2,2.3,93,0.03,RA,,0.70,WeatherDisplay:10.37,2013-02-11 23:44:00,
2013-02-11 18:49:00,41.7,39.8,29.67,SW,225,2.6,2.6,93,0.04,RA,,0.71,WeatherDisplay:10.37,2013-02-11 23:49:00,
2013-02-11 18:54:00,42.1,40.5,29.66,WSW,248,2.2,2.3,94,0.05,RA,,0.72,WeatherDisplay:10.37,2013-02-11 23:54:00,
2013-02-11 18:59:00,42.6,41.0,29.64,WSW,248,0.5,2.3,94,0.05,RA,,0.72,WeatherDisplay:10.37,2013-02-11 23:59:00,
2013-02-11 19:04:00,43.0,41.1,29.62,SW,225,3.3,3.5,93,0.05,,,0.72,WeatherDisplay:10.37,2013-02-12 00:04:00,
2013-02-11 19:09:00,43.2,41.3,29.64,SW,225,0.7,0.7,93,0.05,CLR,,0.72,WeatherDisplay:10.37,2013-02-12 00:09:00,
2013-02-11 19:14:00,43.0,41.1,29.64,SW,225,1.8,1.8,93,0.05,CLR,,0.72,WeatherDisplay:10.37,2013-02-12 00:14:00,
2013-02-11 19:19:00,43.2,41.3,29.63,SSW,202,1.8,4.6,93,0.04,CLR,,0.72,WeatherDisplay:10.37,2013-02-12 00:19:00,
2013-02-11 19:24:00,43.3,41.5,29.63,SW,225,1.6,4.6,93,0.04,CLR,,0.72,WeatherDisplay:10.37,2013-02-12 00:24:00,
2013-02-11 19:29:00,43.5,41.6,29.64,WSW,248,2.4,2.4,93,0.04,CLR,,0.72,WeatherDisplay:10.37,2013-02-12 00:29:00,
2013-02-11 19:34:00,43.7,41.8,29.63,WSW,248,2.6,2.6,93,0.04,CLR,,0.72,WeatherDisplay:10.37,2013-02-12 00:34:00,
2013-02-11 19:39:00,44.1,42.2,29.63,South,180,0.5,2.3,93,0.03,CLR,,0.72,WeatherDisplay:10.37,2013-02-12 00:39:00,
2013-02-11 19:44:00,44.2,42.3,29.63,SSW,202,0.9,2.3,93,0.02,CLR,,0.72,WeatherDisplay:10.37,2013-02-12 00:44:00,
2013-02-11 19:49:00,44.2,42.3,29.62,SSW,202,2.6,3.5,93,0.01,CLR,,0.72,WeatherDisplay:10.37,2013-02-12 00:49:00,
2013-02-11 19:54:00,44.2,42.3,29.62,WSW,248,1.6,3.5,93,0.00,CLR,,0.72,WeatherDisplay:10.37,2013-02-12 00:54:00,
2013-02-11 19:59:00,44.4,42.5,29.62,West,270,0.0,2.3,93,0.00,CLR,,0.72,WeatherDisplay:10.37,2013-02-12 00:59:00,
2013-02-11 20:04:00,44.4,42.5,29.62,SW,225,0.2,0.2,93,0.00,CLR,,0.72,WeatherDisplay:10.37,2013-02-12 01:04:00,
2013-02-11 20:09:00,44.2,42.3,29.62,SSW,202,1.1,1.1,93,0.00,CLR,,0.72,WeatherDisplay:10.37,2013-02-12 01:09:00,
2013-02-11 20:14:00,44.6,42.7,29.61,West,270,0.7,2.3,93,0.00,CLR,,0.72,WeatherDisplay:10.37,2013-02-12 01:14:00,
2013-02-11 20:19:00,44.2,42.3,29.61,WSW,248,0.0,3.5,93,0.00,CLR,,0.72,WeatherDisplay:10.37,2013-02-12 01:19:00,
2013-02-11 20:24:00,44.1,42.2,29.61,SW,225,0.7,2.3,93,0.00,CLR,,0.72,WeatherDisplay:10.37,2013-02-12 01:24:00,
2013-02-11 20:29:00,43.9,42.0,29.61,South,180,1.8,3.5,93,0.00,CLR,,0.72,WeatherDisplay:10.37,2013-02-12 01:29:00,
2013-02-11 20:34:00,44.1,42.2,29.61,SSW,202,3.3,3.5,93,0.00,CLR,,0.72,WeatherDisplay:10.37,2013-02-12 01:34:00,
2013-02-11 20:39:00,43.9,42.0,29.61,NNW,338,2.4,2.4,93,0.00,CLR,,0.72,WeatherDisplay:10.37,2013-02-12 01:39:00,
2013-02-11 20:44:00,43.9,42.0,29.61,SSW,202,3.3,3.3,93,0.00,CLR,,0.72,WeatherDisplay:10.37,2013-02-12 01:44:00,
2013-02-11 20:49:00,43.9,42.0,29.60,West,270,0.7,1.1,93,0.00,CLR,,0.72,WeatherDisplay:10.37,2013-02-12 01:49:00,
2013-02-11 20:54:00,43.9,42.0,29.60,West,270,1.1,1.1,93,0.00,CLR,,0.72,WeatherDisplay:10.37,2013-02-12 01:54:00,
2013-02-11 20:59:00,43.7,41.8,29.59,SW,225,0.5,1.1,93,0.00,CLR,,0.72,WeatherDisplay:10.37,2013-02-12 01:59:00,
2013-02-11 21:04:00,43.7,41.8,29.60,SW,225,0.5,1.1,93,0.00,CLR,,0.72,WeatherDisplay:10.37,2013-02-12 02:04:00,
2013-02-11 21:09:00,43.7,41.8,29.59,SSW,202,1.8,2.3,93,0.00,CLR,,0.72,WeatherDisplay:10.37,2013-02-12 02:09:00,
2013-02-11 21:14:00,43.7,41.8,29.60,SSW,202,2.4,2.4,93,0.00,CLR,,0.72,WeatherDisplay:10.37,2013-02-12 02:14:00,
2013-02-11 21:19:00,43.5,41.6,29.59,SSW,202,2.4,2.4,93,0.00,CLR,,0.72,WeatherDisplay:10.37,2013-02-12 02:19:00,
2013-02-11 21:24:00,43.5,41.6,29.59,SW,225,1.4,2.3,93,0.00,CLR,,0.72,WeatherDisplay:10.37,2013-02-12 02:24:00,
2013-02-11 21:29:00,43.5,41.6,29.59,SSW,202,2.2,3.5,93,0.00,CLR,,0.72,WeatherDisplay:10.37,2013-02-12 02:29:00,
2013-02-11 21:34:00,43.5,41.6,29.59,West,270,0.0,1.1,93,0.00,CLR,,0.72,WeatherDisplay:10.37,2013-02-12 02:34:00,
2013-02-11 21:39:00,43.2,41.3,29.59,SW,225,1.4,2.3,93,0.00,CLR,,0.72,WeatherDisplay:10.37,2013-02-12 02:39:00,
2013-02-11 21:44:00,43.2,41.3,29.59,SW,225,0.5,2.3,93,0.00,CLR,,0.72,WeatherDisplay:10.37,2013-02-12 02:44:00,
2013-02-11 21:49:00,43.2,41.3,29.58,SW,225,1.1,1.1,93,0.00,CLR,,0.72,WeatherDisplay:10.37,2013-02-12 02:49:00,
2013-02-11 21:54:00,43.2,41.3,29.58,SW,225,0.0,1.1,93,0.00,CLR,,0.72,WeatherDisplay:10.37,2013-02-12 02:54:00,
2013-02-11 21:59:00,43.2,41.3,29.58,SW,225,1.1,1.1,93,0.00,CLR,,0.72,WeatherDisplay:10.37,2013-02-12 02:59:00,
2013-02-11 22:04:00,43.0,41.1,29.57,SW,225,1.1,1.1,93,0.00,CLR,,0.72,WeatherDisplay:10.37,2013-02-12 03:04:00,
2013-02-11 22:09:00,42.8,40.9,29.57,SW,225,0.2,2.3,93,0.00,CLR,,0.72,WeatherDisplay:10.37,2013-02-12 03:09:00,
2013-02-11 22:14:00,42.8,40.9,29.57,SW,225,0.0,0.0,93,0.00,CLR,,0.72,WeatherDisplay:10.37,2013-02-12 03:14:00,
2013-02-11 22:19:00,42.6,40.7,29.57,WSW,248,0.0,0.0,93,0.00,CLR,,0.72,WeatherDisplay:10.37,2013-02-12 03:19:00,
2013-02-11 22:24:00,42.6,40.7,29.57,SW,225,0.0,1.1,93,0.00,CLR,,0.72,WeatherDisplay:10.37,2013-02-12 03:24:00,
2013-02-11 22:29:00,42.6,40.7,29.56,SW,225,0.2,0.2,93,0.00,CLR,,0.72,WeatherDisplay:10.37,2013-02-12 03:29:00,
2013-02-11 22:34:00,42.6,40.7,29.56,WSW,248,0.0,2.3,93,0.00,CLR,,0.72,WeatherDisplay:10.37,2013-02-12 03:34:00,
2013-02-11 22:39:00,42.6,40.7,29.56,WSW,248,0.0,1.1,93,0.00,CLR,,0.72,WeatherDisplay:10.37,2013-02-12 03:39:00,
2013-02-11 22:44:00,42.4,40.6,29.56,SW,225,0.2,1.1,93,0.00,CLR,,0.72,WeatherDisplay:10.37,2013-02-12 03:44:00,
2013-02-11 22:49:00,42.6,40.7,29.56,SSW,202,2.2,2.2,93,0.00,CLR,,0.72,WeatherDisplay:10.37,2013-02-12 03:49:00,
2013-02-11 22:54:00,42.6,40.7,29.56,SW,225,0.5,1.1,93,0.00,CLR,,0.72,WeatherDisplay:10.37,2013-02-12 03:54:00,
2013-02-11 22:59:00,42.8,40.9,29.55,WSW,248,0.5,1.1,93,0.00,CLR,,0.72,WeatherDisplay:10.37,2013-02-12 03:59:00,
2013-02-11 23:04:00,42.8,40.9,29.55,WSW,248,2.6,2.6,93,0.00,CLR,,0.72,WeatherDisplay:10.37,2013-02-12 04:04:00,
2013-02-11 23:09:00,42.8,40.9,29.55,WSW,248,0.2,1.1,93,0.00,CLR,,0.72,WeatherDisplay:10.37,2013-02-12 04:09:00,
2013-02-11 23:14:00,42.8,40.9,29.55,WSW,248,1.8,1.8,93,0.00,CLR,,0.72,WeatherDisplay:10.37,2013-02-12 04:14:00,
2013-02-11 23:19:00,42.8,40.9,29.55,SW,225,0.2,1.1,93,0.00,CLR,,0.72,WeatherDisplay:10.37,2013-02-12 04:19:00,
2013-02-11 23:24:00,42.6,40.7,29.55,SSW,202,1.6,1.6,93,0.00,CLR,,0.72,WeatherDisplay:10.37,2013-02-12 04:24:00,
2013-02-11 23:29:00,42.8,40.9,29.55,West,270,0.0,1.1,93,0.00,CLR,,0.72,WeatherDisplay:10.37,2013-02-12 04:29:00,
2013-02-11 23:34:00,42.6,40.7,29.55,West,270,0.9,1.1,93,0.00,CLR,,0.72,WeatherDisplay:10.37,2013-02-12 04:34:00,
2013-02-11 23:39:00,42.6,40.7,29.55,SW,225,0.5,2.3,93,0.00,CLR,,0.72,WeatherDisplay:10.37,2013-02-12 04:39:00,
2013-02-11 23:44:00,42.6,40.7,29.55,South,180,1.1,2.3,93,0.00,CLR,,0.72,WeatherDisplay:10.37,2013-02-12 04:44:00,
2013-02-11 23:49:00,42.6,40.7,29.55,SSW,202,1.1,1.1,93,0.00,CLR,,0.72,WeatherDisplay:10.37,2013-02-12 04:49:00,
2013-02-11 23:54:00,42.6,40.7,29.55,WSW,248,0.5,0.5,93,0.00,CLR,,0.72,WeatherDisplay:10.37,2013-02-12 04:54:00,
2013-02-11 23:59:00,42.6,40.7,29.55,SSW,202,0.5,0.5,93,0.00,CLR,,0.73,WeatherDisplay:10.37,2013-02-12 04:59:00,